Location: Chisholm
(54.9102°N, 114.1701°W)
Time: 10:57:33
(UTC+00:00)

N. Korean satellite - Pass Details

Date: 09 December 2021
Orbit: 447 x 491 km, 97.3° (Epoch: 23 January)

Event Time Altitude Azimuth Distance (km) Brightness Sun altitude
Rises 00:31:35 0° 191° (S) 2,507 10.7 -10.7°
Reaches altitude 10° 00:33:50 10° 203° (SSW) 1,626 9.9 -11.0°
Maximum altitude 00:36:54 29° 264° (W) 893 8.7 -11.4°
Drops below altitude 10° 00:39:58 10° 326° (NNW) 1,616 9.3 -11.8°
Sets 00:42:12 0° 339° (NNW) 2,489 10.2 -12.1°
